Pagina principale
METAR-TAF:

METAR-TAF

Aeroporti :

Torino, Italia

Bric della Croce

latitudine: 45-02N, longitudine: 007-44E, altezza: 709 m

Osservazione

Il bollettino è stato emesso 49 minuti fa, alle 05:55 UTC
Vento 15 kt da ovest con raffiche fino a 28 kt, variando fra ovest/sud-ovest e nord/nord-ovest
Temperature 18°C
Umidità 34%
Pressione 1008 hPa
Visibilità 10 km o più
nessuna nube inferiore a 1500 m e nessun cumulonembo

METAR: LIMK 260555Z 28015G28KT 240V330 CAVOK 18/02 Q1008 RMK FEW FEW170 VAL NIL VIS MIN 9999

Ora: 08:44 (06:44 UTC)


TAF: mancante

Osservazioni e previsioni meteorologiche di più di 4000 aeroporti (messaggi METAR e TAF).

Le stazioni disponibili sono rappresentate dai dischi gialli e rossi sulla carta.

Puntare il mouse per vedere il nome della stazione.

Clicca sopra per visualizzare le osservazioni e previsioni meteorologiche.

Per cambiare la mappa : fare clic sui pulsanti verdi con una croce nera per ingrandire, il pulsante verde con un trattino per diminuire, o sulla freccia verde per le mappe adiacenti.


METAR-TAF: